Theta_e
344 347 347 343 342 342 344 343 338 333 331 330 336 338 341 338 334 334 335 337 337 339 339 339 339 339 339 339 339 338 337 332 331 331 331 335 338 340 340 335 336 339 339
345 346 346 345 344 342 342 343 340 334 334 335 338 341 342 341 341 341 341 341 341 341 340 342 339 340 339 340 336 335 335 334 335 335 328 332 335 336 335 334 336 338 338
344 345 346 346 343 341 341 341 339 336 336 338 341 342 343 342 341 340 341 341 342 341 340 339 340 340 338 337 328 334 334 334 334 335 335 334 332 337 335 334 335 337 336
345 343 344 345 343 341 340 341 339 338 337 339 341 341 343 342 342 341 342 341 338 339 339 338 337 338 334 331 324 330 334 335 335 335 335 336 336 336 335 336 337 336 334
346 344 344 344 343 341 341 341 340 339 337 339 340 340 341 342 341 341 341 338 336 338 337 337 336 335 330 328 325 320 333 335 335 333 334 333 336 336 337 337 335 333 333
346 344 344 343 343 342 340 340 340 338 338 338 340 340 341 340 341 340 338 336 333 334 330 332 330 329 326 321 326 322 321 327 324 332 331 331 328 336 336 335 333 334 334
346 345 343 342 341 342 340 339 339 338 338 338 339 339 340 341 338 338 337 334 332 334 332 329 328 324 321 327 328 323 320 322 330 329 328 328 326 332 334 333 334 334 333
345 344 344 342 341 341 340 340 339 338 338 338 338 339 339 339 337 337 336 333 331 332 332 330 328 322 327 328 317 316 319 332 330 328 326 326 327 332 332 332 334 334 333
343 343 343 343 340 340 340 338 338 339 339 339 338 338 338 337 337 336 337 335 333 329 330 328 325 330 332 329 322 332 333 333 331 329 328 326 329 334 331 333 334 333 332
341 341 343 343 340 340 340 338 337 337 337 338 338 338 338 336 336 337 337 335 331 326 330 329 326 331 331 328 327 332 332 332 330 327 326 328 334 333 333 333 333 332 331
340 340 342 342 341 340 340 339 338 338 337 336 338 337 337 337 337 337 335 333 330 328 330 329 326 330 328 327 327 328 331 330 328 326 325 325 332 334 333 333 332 332 331
333 340 341 340 340 340 340 339 339 337 337 336 337 337 337 338 338 337 334 332 330 329 330 328 327 329 327 325 323 324 326 328 327 327 327 329 326 332 332 331 330 330 327
330 333 339 338 339 341 340 339 339 338 336 336 336 337 336 337 338 337 333 332 330 328 325 327 328 330 329 325 324 322 323 327 325 324 325 326 330 330 330 328 328 327 326
321 323 329 334 334 338 339 340 339 338 337 336 336 336 336 337 338 336 333 332 329 326 325 327 328 331 330 325 324 323 322 323 325 324 322 325 327 328 329 328 327 326 325
323 322 322 324 328 333 336 337 337 337 337 337 336 336 336 337 337 336 333 330 328 325 324 327 329 330 327 324 323 323 322 323 325 323 322 322 323 321 327 325 321 321 322
321 322 321 321 322 325 332 332 336 335 335 336 337 336 337 336 337 335 331 329 327 324 324 325 327 328 326 325 322 322 322 325 324 322 321 321 321 320 322 322 321 322 323
315 316 318 320 321 321 323 330 327 327 335 335 334 336 337 336 336 333 329 328 325 325 323 324 326 327 325 323 322 321 322 320 321 321 320 320 322 320 318 324 323 323 320
316 315 316 316 320 320 319 320 322 321 323 333 334 334 335 335 335 331 329 328 326 324 324 327 329 327 325 324 322 321 321 321 321 320 320 319 320 319 320 324 325 323 322
318 320 320 319 320 321 320 319 318 317 318 320 331 333 332 334 334 333 329 328 326 325 324 325 328 326 326 324 321 321 322 321 321 320 320 319 318 318 320 324 324 320 319
313 316 319 319 319 318 319 319 319 319 317 319 327 332 331 330 334 333 330 327 326 326 325 326 326 326 325 323 321 321 321 321 321 321 321 319 319 319 321 321 322 319 320
306 308 311 315 318 318 318 319 319 320 320 324 330 331 330 330 331 333 331 330 327 326 326 326 326 325 323 322 321 318 319 321 321 321 320 319 319 320 320 320 322 320 321
298 302 305 311 314 316 319 317 318 319 320 324 329 329 330 329 330 332 331 331 330 326 327 327 325 323 322 321 320 319 315 317 319 320 318 318 317 319 320 321 321 321 321
295 296 298 302 308 315 317 319 320 321 323 328 328 328 329 330 331 330 330 329 330 327 326 325 324 323 323 321 321 319 315 317 314 318 318 317 317 318 319 319 319 320 320
293 294 296 297 301 310 316 320 321 325 325 327 328 329 327 328 329 328 329 329 328 329 326 326 325 324 323 321 320 320 319 316 313 311 315 317 317 318 317 317 318 319 318
292 291 292 294 296 301 311 316 322 324 325 327 327 327 327 327 327 327 327 327 327 327 327 326 325 323 323 321 320 319 316 315 315 312 312 313 315 316 316 318 317 317 316
290 291 291 291 292 295 299 306 313 320 323 324 324 324 324 324 325 326 326 326 326 326 326 325 326 323 323 322 320 320 318 316 315 313 310 313 315 314 315 317 317 315 315
Wind_Speed
25 25 26 24 23 22 20 19 20 20 18 18 19 19 18 18 19 18 17 16 16 15 14 15 16 16 16 15 15 14 14 14 16 16 17 17 17 16 16 16 16 17 19
28 27 25 23 23 21 20 20 20 20 19 19 19 19 19 18 16 16 15 15 13 13 14 15 16 15 16 16 16 15 13 14 14 16 16 17 16 13 15 18 19 19 20
26 27 25 24 24 22 21 21 21 20 19 19 19 18 20 18 17 16 14 13 11 12 13 13 17 18 16 15 16 16 16 15 16 15 16 15 14 14 18 16 20 21 21
24 27 24 22 23 23 23 22 21 21 20 18 19 19 19 19 17 16 14 14 12 12 14 17 18 18 15 12 12 16 17 18 17 17 16 16 16 16 19 20 21 20 19
24 27 24 22 22 23 24 22 21 22 20 18 19 18 19 18 17 16 16 14 13 13 18 17 17 14 11 10 10 13 16 16 13 10 13 13 14 15 18 19 19 18 19
23 24 24 23 22 22 22 22 21 21 20 19 19 19 19 17 17 18 18 17 16 12 12 12 10 9 10 9 10 11 16 11 9 17 16 11 9 12 14 16 17 18 20
23 22 23 21 22 22 22 21 21 21 21 20 18 18 18 17 16 18 19 19 16 12 10 10 9 9 12 12 10 12 15 10 17 16 10 7 6 10 12 14 17 19 19
24 23 24 21 22 21 21 21 21 20 20 20 19 18 17 16 16 20 21 19 15 12 10 11 10 13 14 14 13 15 14 15 17 14 10 7 6 11 12 15 16 19 18
19 21 23 22 21 23 22 21 21 20 20 19 19 18 16 15 16 20 21 17 13 14 12 12 11 13 16 15 17 15 17 14 16 15 10 7 7 14 15 17 18 18 19
14 15 17 21 23 24 23 22 21 20 19 19 18 18 17 17 18 20 20 15 13 15 16 14 14 16 18 17 17 17 14 16 16 16 10 10 8 17 17 18 19 19 19
14 14 16 17 23 24 23 23 22 22 20 20 20 18 18 20 22 22 20 16 15 16 18 16 16 18 19 20 18 14 15 16 16 14 12 11 12 18 20 22 23 22 22
7 18 16 17 19 23 24 24 24 24 24 23 22 20 20 21 23 22 20 18 17 17 18 17 18 19 20 18 16 14 11 10 10 13 10 10 11 16 20 21 20 19 15
18 14 22 16 19 22 25 25 28 28 27 25 24 23 23 22 23 22 21 20 18 18 18 20 20 21 20 17 16 14 14 13 13 12 9 9 13 13 13 14 15 15 14
21 22 21 24 21 22 26 26 28 30 28 28 28 27 26 26 27 25 25 23 21 19 18 22 22 21 20 18 15 14 14 13 14 15 11 11 11 12 13 15 14 13 11
27 26 26 26 28 25 22 28 27 27 28 29 29 30 30 30 30 28 28 26 23 21 21 24 24 23 19 18 15 13 5 13 20 14 11 10 11 7 12 11 10 9 9
31 31 30 28 29 31 29 22 24 28 29 28 30 32 32 34 33 32 31 27 25 22 23 26 26 26 18 18 17 13 10 18 18 15 13 13 13 13 10 11 9 11 13
30 30 33 32 28 30 33 34 25 20 29 30 31 34 36 36 35 34 33 28 27 24 25 27 26 25 24 19 19 14 13 8 12 16 8 11 13 13 9 14 16 15 12
6 15 26 32 33 31 31 32 34 27 23 27 31 31 35 36 38 36 33 30 28 29 29 30 28 26 26 22 18 16 14 9 11 12 10 11 11 10 12 14 18 16 13
16 13 7 4 22 34 34 34 34 33 30 24 30 31 31 35 38 38 33 33 31 32 34 33 31 29 28 23 20 16 15 12 15 14 13 11 14 13 13 15 16 13 13
18 15 9 7 6 8 24 29 32 35 37 32 31 32 30 31 35 38 37 31 32 34 34 33 35 30 26 26 23 15 12 16 15 17 16 15 15 15 16 15 17 15 15
24 22 19 17 12 12 15 22 28 31 33 29 33 35 30 29 31 38 40 32 29 29 36 38 36 33 29 26 25 22 17 17 16 14 14 13 14 15 16 16 19 18 18
28 27 24 20 20 20 17 24 28 30 32 30 32 32 32 31 32 37 41 38 33 24 26 37 34 28 23 31 18 13 3 5 9 13 12 12 15 17 17 18 19 18 18
31 29 28 23 17 18 16 20 24 25 27 27 31 31 32 31 31 33 35 34 40 34 27 33 35 29 26 28 33 12 3 4 6 10 15 17 17 19 19 20 20 20 23
32 31 30 28 21 13 11 9 26 24 20 22 32 30 28 29 31 32 33 34 34 38 37 31 33 34 29 27 27 25 11 15 3 2 10 17 21 22 23 23 23 24 23
34 36 32 30 28 21 10 7 6 26 27 22 28 26 26 24 23 25 30 32 31 33 36 39 34 29 34 31 27 24 17 16 14 4 3 8 19 25 26 26 27 27 25
35 36 35 35 31 30 25 13 6 8 23 23 23 24 22 23 25 22 25 27 29 31 33 35 39 36 33 31 35 26 24 14 12 6 3 9 16 18 28 29 29 29 29
Wind_Direction
155 160 164 161 161 160 159 155 152 148 142 136 135 133 132 132 131 130 130 129 131 134 135 130 125 118 112 108 109 116 115 114 109 109 112 115 117 118 108 106 109 108 104
158 163 166 162 163 165 163 160 158 152 148 142 140 140 139 138 137 135 137 136 140 148 147 142 133 125 118 114 110 112 117 121 121 115 115 122 127 123 119 123 116 111 101
158 164 168 164 165 169 169 167 162 159 155 149 144 147 147 146 145 142 141 143 144 161 161 149 142 129 121 116 114 111 115 118 116 116 116 119 122 118 129 127 117 104 98
160 167 168 169 168 169 170 170 166 166 162 156 152 157 157 154 152 148 140 140 141 126 140 147 141 136 131 126 121 124 121 114 109 107 106 105 109 122 124 117 105 102 102
157 169 172 173 173 172 172 171 171 171 168 163 163 165 163 161 160 155 150 145 138 127 126 132 138 140 141 141 139 142 140 131 122 111 119 111 103 108 106 105 105 106 105
162 169 175 176 178 178 174 175 175 174 174 173 172 173 169 169 167 165 165 163 153 151 140 139 143 155 160 154 145 150 154 151 113 126 123 100 106 102 109 112 110 111 113
166 174 175 182 182 182 181 178 178 178 178 178 179 179 176 178 177 171 169 162 157 157 149 146 149 150 151 142 141 148 155 130 133 121 118 102 102 127 127 121 119 121 117
177 180 180 184 187 187 188 186 184 182 182 183 183 183 183 183 181 179 173 169 164 170 167 155 152 156 154 143 133 135 135 125 130 129 131 149 149 138 140 135 131 131 120
182 178 182 184 190 190 190 190 191 190 188 187 185 184 184 183 187 181 176 172 178 175 171 162 157 157 155 149 136 131 132 126 139 126 137 142 157 148 146 149 138 132 124
183 187 184 190 191 191 194 194 194 195 194 193 195 191 186 183 178 180 176 178 178 175 171 167 163 153 147 146 142 139 130 138 132 132 138 112 128 148 145 141 135 133 123
174 195 194 188 194 196 196 196 196 196 197 197 194 195 189 183 180 179 181 180 178 175 173 170 172 163 150 147 146 138 139 141 136 135 134 118 101 126 134 128 121 115 110
188 183 188 205 199 202 204 202 199 199 199 199 198 193 190 188 185 184 181 181 183 180 178 178 179 173 166 159 163 157 164 155 143 145 134 121 120 111 115 118 118 117 120
216 204 204 198 209 207 203 205 205 202 201 201 199 196 194 191 189 188 183 182 183 185 187 184 182 182 178 175 175 184 185 179 172 171 170 156 130 129 128 123 120 118 120
217 221 219 219 216 208 215 216 210 204 203 202 201 199 196 192 189 189 189 187 188 187 187 183 183 179 182 176 182 190 202 189 191 169 176 171 147 138 146 135 125 126 128
220 221 219 220 221 219 202 211 213 213 206 210 207 203 198 196 192 192 194 191 190 186 186 182 176 173 176 177 189 204 181 196 184 167 176 186 188 203 176 181 206 209 187
227 227 227 226 222 220 220 203 206 214 217 213 209 205 202 197 195 196 192 192 192 188 186 188 181 179 183 184 184 191 135 162 171 175 160 174 183 187 187 197 186 170 158
231 230 228 229 226 220 220 223 211 206 218 220 214 209 207 201 198 193 193 192 192 186 182 179 184 182 178 183 184 201 199 135 180 168 184 177 174 176 185 174 169 161 164
276 250 233 229 226 219 217 218 224 220 212 218 220 215 213 209 204 191 195 194 189 185 182 183 187 188 188 190 184 197 203 193 177 192 188 180 180 195 187 177 169 160 165
41 38 29 298 235 226 228 230 232 234 237 225 215 210 209 212 208 199 194 195 190 187 185 191 190 188 182 182 173 190 210 195 178 192 183 189 194 195 191 194 183 180 192
29 24 9 345 311 263 234 231 234 236 239 232 215 207 203 206 210 200 197 192 192 191 189 183 188 186 186 181 177 175 183 181 177 183 182 181 189 196 197 188 185 187 189
12 5 359 345 328 311 251 232 231 228 226 220 209 198 197 199 205 204 197 197 195 195 192 187 186 178 176 179 156 119 120 151 162 167 177 184 202 197 201 204 200 200 193
12 4 353 338 323 314 281 243 235 230 224 216 204 195 195 200 204 204 201 204 204 197 195 187 179 167 171 177 161 146 130 113 152 180 193 208 219 206 208 209 207 208 197
13 4 355 344 320 305 305 245 226 225 218 203 203 199 201 202 204 208 207 209 209 207 194 184 180 175 173 182 186 159 139 198 137 181 195 202 214 210 211 210 214 211 197
8 4 360 357 351 325 304 270 213 204 196 200 195 194 197 205 203 208 208 208 205 205 204 198 195 190 176 185 182 191 180 150 164 169 198 204 209 215 216 214 214 204 206
16 12 359 356 3 2 1 336 228 204 198 194 198 194 193 196 203 205 211 212 209 203 204 204 200 191 188 184 183 191 187 175 163 143 169 195 212 212 220 218 213 214 214
19 11 3 359 1 1 18 29 23 158 188 187 194 192 185 192 198 201 207 211 213 208 202 201 206 199 197 191 195 199 195 183 184 159 128 189 205 218 216 217 218 216 219